Total_Precipitation_Accumulation
1.83 1.79 1.82 1.78 1.71 1.59 1.50 1.41 1.33 1.25 1.20 1.16 1.16 1.14 1.12 1.09 1.07 1.11 1.09 1.11 1.18 1.20 1.21 1.23 1.26 1.30 1.36 1.32 1.36 1.48 1.65 1.87 1.99 1.78 1.61 1.54 1.53 1.60 1.60 1.47 1.38 1.29 1.20
1.45 1.57 1.68 1.59 1.53 1.47 1.44 1.40 1.32 1.17 1.13 1.12 1.12 1.05 0.92 0.89 0.96 1.04 1.05 1.02 1.12 1.13 1.13 1.21 1.23 1.26 1.32 1.33 1.37 1.43 1.56 1.76 1.91 1.95 1.76 1.60 1.54 1.56 1.58 1.51 1.26 1.13 1.12
1.19 1.23 1.35 1.40 1.39 1.37 1.23 1.17 1.16 1.11 1.09 1.05 0.99 0.95 0.90 0.86 0.88 0.89 0.90 0.89 0.96 1.05 1.08 1.15 1.19 1.24 1.25 1.28 1.33 1.38 1.50 1.63 1.83 1.91 1.81 1.67 1.58 1.52 1.62 1.52 1.38 1.44 1.19
1.05 1.15 1.19 1.22 1.27 1.28 1.19 1.10 1.06 1.01 0.98 0.93 0.84 0.82 0.87 0.85 0.77 0.72 0.73 0.78 0.87 0.90 0.92 1.03 1.10 1.14 1.15 1.23 1.29 1.36 1.45 1.62 1.78 1.85 1.74 1.62 1.56 1.57 1.66 1.68 1.60 1.52 1.38
0.99 1.11 1.19 1.13 1.10 1.17 1.23 1.12 0.97 0.93 0.86 0.84 0.78 0.73 0.77 0.75 0.68 0.69 0.70 0.71 0.77 0.78 0.81 0.89 0.96 0.98 0.99 1.06 1.09 1.21 1.39 1.57 1.67 1.76 1.71 1.65 1.58 1.69 1.71 1.64 1.58 1.56 1.43
0.91 1.06 1.12 1.12 1.09 1.11 1.16 1.11 1.02 0.96 0.92 0.87 0.81 0.76 0.74 0.68 0.67 0.63 0.62 0.66 0.74 0.81 0.87 0.88 0.84 0.84 0.82 0.79 0.86 0.97 1.17 1.40 1.60 1.71 1.68 1.67 1.63 1.68 1.78 1.75 1.70 1.72 1.67
0.96 0.98 1.06 1.09 1.14 1.16 1.14 1.10 1.06 1.05 1.04 0.94 0.83 0.80 0.76 0.68 0.60 0.50 0.51 0.59 0.76 0.88 0.94 0.91 0.77 0.73 0.84 0.85 0.87 0.89 1.02 1.15 1.39 1.64 1.72 1.64 1.64 1.69 1.85 1.90 1.82 1.80 1.74
1.02 0.96 0.97 0.97 0.99 0.99 1.05 1.10 1.08 1.05 0.99 0.93 0.85 0.81 0.75 0.58 0.51 0.47 0.51 0.57 0.69 0.74 0.76 0.82 0.90 0.91 0.85 0.89 0.89 1.00 1.09 1.19 1.26 1.39 1.60 1.56 1.52 1.63 1.77 1.80 1.76 1.70 1.64
0.96 0.92 0.87 0.82 0.84 0.85 0.92 1.03 1.11 1.08 0.97 0.88 0.80 0.78 0.74 0.62 0.55 0.52 0.55 0.61 0.67 0.62 0.59 0.64 0.71 0.76 0.77 0.84 0.95 1.12 1.18 1.30 1.29 1.44 1.47 1.41 1.42 1.46 1.44 1.50 1.75 1.89 1.80
0.88 0.81 0.75 0.76 0.79 0.80 0.85 0.96 1.03 1.07 0.95 0.78 0.70 0.71 0.68 0.65 0.58 0.49 0.49 0.52 0.61 0.59 0.63 0.69 0.66 0.60 0.67 0.78 0.98 1.21 1.37 1.42 1.50 1.63 1.60 1.57 1.48 1.45 1.37 1.41 1.72 1.94 1.91
0.76 0.73 0.72 0.75 0.79 0.78 0.87 0.95 0.92 0.86 0.84 0.76 0.70 0.68 0.62 0.52 0.45 0.38 0.39 0.45 0.53 0.60 0.67 0.75 0.74 0.63 0.59 0.67 0.88 1.10 1.27 1.32 1.54 1.79 1.66 1.50 1.45 1.42 1.39 1.40 1.55 1.67 1.65
0.69 0.71 0.75 0.75 0.71 0.71 0.86 0.93 0.84 0.80 0.79 0.76 0.73 0.68 0.57 0.46 0.38 0.32 0.29 0.31 0.37 0.56 0.72 0.73 0.72 0.67 0.63 0.71 0.86 1.04 1.17 1.36 1.57 1.68 1.47 1.31 1.22 1.20 1.25 1.21 1.20 1.23 1.29
0.65 0.73 0.76 0.71 0.78 0.79 0.77 0.78 0.78 0.78 0.68 0.62 0.63 0.60 0.54 0.48 0.40 0.30 0.26 0.27 0.33 0.47 0.64 0.70 0.66 0.62 0.72 0.93 1.05 1.16 1.32 1.55 1.60 1.47 1.34 1.21 1.10 1.12 1.10 1.07 1.07 1.11 1.10
0.68 0.72 0.70 0.71 0.82 0.82 0.74 0.64 0.61 0.60 0.56 0.53 0.54 0.53 0.53 0.53 0.42 0.35 0.35 0.35 0.39 0.46 0.60 0.74 0.78 0.78 0.95 1.16 1.30 1.40 1.51 1.60 1.46 1.32 1.24 1.12 1.00 1.07 1.12 1.07 1.16 1.19 1.18
0.62 0.66 0.66 0.68 0.73 0.79 0.70 0.55 0.50 0.44 0.37 0.37 0.40 0.40 0.46 0.45 0.34 0.32 0.34 0.38 0.43 0.48 0.58 0.76 0.90 0.94 1.07 1.22 1.35 1.42 1.48 1.49 1.42 1.29 1.21 1.12 1.04 1.03 1.00 0.94 1.04 1.11 1.15
0.60 0.57 0.53 0.56 0.59 0.63 0.62 0.53 0.36 0.23 0.17 0.16 0.17 0.22 0.25 0.26 0.24 0.23 0.26 0.32 0.38 0.48 0.64 0.91 1.00 0.98 1.03 1.13 1.25 1.34 1.34 1.32 1.28 1.29 1.27 1.22 1.13 1.03 0.99 0.94 0.95 1.03 1.12
0.55 0.54 0.45 0.44 0.49 0.50 0.50 0.56 0.50 0.31 0.16 0.11 0.10 0.14 0.16 0.17 0.20 0.21 0.24 0.30 0.36 0.49 0.69 0.90 1.00 1.04 1.07 1.11 1.14 1.18 1.24 1.25 1.19 1.21 1.23 1.17 1.06 0.98 0.96 0.96 0.95 1.00 1.03
0.42 0.39 0.40 0.45 0.45 0.42 0.39 0.39 0.43 0.50 0.45 0.33 0.20 0.17 0.18 0.20 0.23 0.23 0.26 0.31 0.39 0.47 0.68 0.86 0.97 1.04 1.09 1.12 1.12 1.09 1.13 1.16 1.11 1.06 1.10 1.09 1.01 0.96 0.97 0.98 0.98 0.93 0.94
0.40 0.38 0.39 0.40 0.39 0.34 0.30 0.29 0.32 0.40 0.43 0.43 0.38 0.30 0.26 0.27 0.29 0.30 0.35 0.43 0.51 0.55 0.62 0.74 0.85 0.94 0.96 0.97 1.02 1.03 1.06 1.11 1.04 1.00 1.04 1.07 1.04 0.99 0.93 0.85 0.81 0.73 0.79
0.31 0.29 0.31 0.34 0.30 0.27 0.28 0.30 0.30 0.35 0.39 0.41 0.44 0.41 0.38 0.45 0.54 0.50 0.46 0.51 0.56 0.57 0.59 0.68 0.76 0.79 0.80 0.76 0.77 0.82 0.86 0.89 0.90 0.95 1.00 0.96 0.90 0.86 0.78 0.71 0.70 0.73 0.78
0.28 0.27 0.27 0.25 0.23 0.24 0.27 0.27 0.25 0.29 0.33 0.37 0.34 0.34 0.45 0.54 0.61 0.59 0.57 0.61 0.65 0.65 0.63 0.67 0.70 0.70 0.69 0.66 0.65 0.66 0.70 0.75 0.79 0.82 0.87 0.85 0.78 0.74 0.69 0.62 0.60 0.60 0.61
0.24 0.26 0.24 0.21 0.21 0.20 0.22 0.23 0.23 0.26 0.29 0.34 0.34 0.34 0.45 0.50 0.55 0.58 0.62 0.69 0.73 0.71 0.67 0.68 0.67 0.66 0.65 0.64 0.61 0.60 0.62 0.66 0.70 0.73 0.73 0.70 0.67 0.64 0.56 0.52 0.50 0.49 0.50
0.23 0.24 0.23 0.21 0.20 0.20 0.21 0.22 0.22 0.24 0.26 0.30 0.34 0.37 0.43 0.53 0.57 0.63 0.71 0.74 0.74 0.75 0.70 0.65 0.70 0.72 0.64 0.58 0.53 0.51 0.52 0.55 0.56 0.62 0.69 0.69 0.61 0.55 0.50 0.46 0.45 0.46 0.46
0.23 0.22 0.21 0.22 0.23 0.23 0.23 0.22 0.20 0.20 0.23 0.26 0.31 0.32 0.36 0.42 0.48 0.52 0.60 0.66 0.72 0.76 0.74 0.73 0.77 0.71 0.58 0.52 0.48 0.46 0.49 0.53 0.54 0.57 0.60 0.61 0.56 0.49 0.43 0.41 0.41 0.45 0.48
0.19 0.20 0.20 0.20 0.20 0.20 0.21 0.21 0.19 0.20 0.22 0.22 0.23 0.24 0.27 0.31 0.35 0.40 0.47 0.51 0.56 0.64 0.63 0.64 0.65 0.57 0.50 0.45 0.43 0.44 0.51 0.49 0.46 0.51 0.56 0.58 0.51 0.45 0.43 0.38 0.39 0.41 0.43
0.17 0.17 0.16 0.16 0.15 0.15 0.16 0.18 0.17 0.18 0.20 0.20 0.19 0.21 0.25 0.28 0.31 0.35 0.38 0.40 0.43 0.48 0.52 0.55 0.54 0.45 0.38 0.37 0.37 0.36 0.34 0.30 0.29 0.35 0.47 0.50 0.44 0.39 0.41 0.41 0.37 0.40 0.45